Location: Casone le Fosse
(44.6547°N, 12.1103°E)
Time: 22:54:29
(UTC+00:00)

Cosmos 1302 Rocket - Visible Passes

Search period start: 08 March 2021 00:00
Search period end: 18 March 2021 00:00
Orbit: 757 x 776 km, 74.0° (Epoch: 08 March)

Date Brightness Start Highest point End Pass type
(mag) Time Alt. Az. Time Alt. Az. Time Alt. Az.
08 Mar 7.0 18:30:46 10° WNW 18:32:22 11° NW 18:33:59 10° NNW visible
09 Mar 6.7 17:50:53 10° W 17:54:19 18° NW 17:57:48 10° N visible
12 Mar 6.9 17:42:02 10° WNW 17:44:01 12° NW 17:46:00 10° NNW visible
